Regional Weather Roundup
Issued by NWS

Home | Current Version | Previous Version | Graphics & Text | Print | Product List | Glossary On
Versions: 1 2 3 4 5 6 7 8 9 10 11 12 13 14 15 16 17 18 19 20 21 22 23 24 25 26 27 28 29 30 31 32 33 34 35 36 37 38 39 40 41 42 43 44 45 46 47 48 49 50
000
ASUS45 KSLC 010610
RWRUT

UTAH REGIONAL WEATHER ROUNDUP
NATIONAL WEATHER SERVICE SALT LAKE CITY UT
1200 AM MDT TUE SEP 01 2015

UTZ001>011-023>025-010700-

NORTHERN UTAH

CITY           SKY/WX    TMP DP  RH WIND       PRES   REMARKS
BRIGHAM CITY   CLEAR     64  44  47 CALM      29.98S
HILL AFB       CLEAR     69  37  30 E15       30.00S
LOGAN          CLEAR     56  44  64 NE3       30.01R
OGDEN          CLEAR     68  38  33 S9        29.97S
PROVO AIRPORT  PTCLDY    72  43  35 SE12      30.00S
SALT LAKE CITY MOCLDY    73  41  31 SE8       29.96S
VERNAL         CLEAR     59  47  64 CALM      30.14R
WENDOVER       CLEAR     70  30  23 S5        29.96R
HEBER CITY     PTCLDY    61  39  44 CALM      30.11S
WEST JORDAN    CLEAR     70  43  37 S3        30.00S

$$

UTZ012>022-026-027-010700-

SOUTHERN/CENTRAL UTAH

CITY           SKY/WX    TMP DP  RH WIND       PRES   REMARKS
BLANDING       PTCLDY    63  46  52 NE3       30.25S
BRYCE CANYON   MOCLDY    52  45  77 SW3       30.31R
CEDAR CITY     PTCLDY    71  45  39 SE6       30.12R
DELTA          PTCLDY    73  36  26 S10       30.01S
HANKSVILLE     MOCLDY    70  50  49 CALM      30.07R
MILFORD        CLEAR     73  38  27 S15       30.04R
MOAB/CYNLANDS  MOCLDY    73  48  41 E3        30.04S
PRICE          PTCLDY    62  47  57 N6        30.15S
ST GEORGE      PTCLDY    84  52  32 E20       29.93R
KANAB          MOCLDY    68  52  56 N5        30.16R

$$

REGIONAL REPORTS     COLORADO/ARIZONA

CITY           SKY/WX    TMP DP  RH WIND       PRES   REMARKS
CRAIG, CO      PTCLDY    58  45  62 E3        30.22S
GRAND JUNCTION PTCLDY    71  50  47 E6        30.09F
RIFLE          PTCLDY    62  50  64 CALM      30.18S
MONTROSE       MOCLDY    63  51  65 S5        30.19S
CORTEZ         PTCLDY    60  48  64 NE6       30.20R
PAGE, AZ       PTCLDY    74  54  49 CALM      30.08R
GRAND CANYON   PTCLDY    57  52  83 CALM        N/A
KINGMAN        CLEAR     80  48  32 S10       29.97S
FLAGSTAFF      CLEAR     54  51  90 CALM      30.31R

$$

REGIONAL REPORTS    NEVADA/IDAHO/WYOMING

CITY           SKY/WX    TMP DP  RH WIND       PRES   REMARKS
LAS VEGAS, NV  CLEAR     89  32  13 SW6       29.79F
ELY            CLEAR     65  32  29 S13       30.10S
ELKO           CLEAR     59  29  31 SW3       30.00R
POCATELLO, ID  CLEAR     57  35  43 CALM      30.01S
BURLEY         CLEAR     54  42  64 CALM      29.97S
EVANSTON, WY   CLEAR     58  34  40 S7        30.20S
ROCK SPRINGS   CLEAR     61  41  47 S7        30.18R
KEMMERER       CLEAR     50  28  43 NW6       30.21S

$$



USA.gov is the U.S. government's official web portal to all federal, state and local government web resources and services.